Regional Weather Roundup
Issued by NWS

Home | Current Version | Previous Version | Text Only | Print | Product List | Glossary Off
Versions: 1 2 3 4 5 6 7 8 9 10 11 12 13 14 15 16 17 18 19 20 21 22 23 24 25 26 27 28 29 30 31 32 33 34 35 36 37 38 39 40 41 42 43 44 45 46 47 48 49 50

713
ASUS45 KBOU 021507
RWRCO

WEATHER ROUNDUP FOR COLORADO
NATIONAL WEATHER SERVICE DENVER/BOULDER CO
800 AM MST FRI DEC 02 2016

NOTE: "FAIR" INDICATES FEW OR NO CLOUDS BELOW 12000 FEET WITH NO
SIGNIFICANT WEATHER AND/OR OBSTRUCTIONS TO VISIBILITY.

COZ001>005-013-030-031-021600-
...NORTHWEST COLORADO...

CITY           SKY/WX    TMP DP  RH WIND       PRES   REMARKS
CRAIG          CLOUDY    14  10  84 SE3       30.13R
HAYDEN         CLOUDY    12   7  79 W5        30.09R WCI   4
MEEKER         FOG       15  14  95 CALM      30.09R VSB 1/4
MOUNT WERNER   NOT AVBL
STEAMBOAT SPGS CLOUDY    11   6  79 NW3       30.08R
WALDEN           N/A     10   9  92 CALM      30.06R VSB 1/4
$$

COZ006>008-011-021600-
...WEST CENTRAL VALLEYS...

CITY           SKY/WX    TMP DP  RH WIND       PRES   REMARKS
GRAND JUNCTION CLOUDY    29  22  75 W3        30.07R
MONTROSE       FAIR      19  12  74 SE10      30.09R WCI   7
EAGLE          MOCLDY    18  16  93 E6        30.11R WCI   9
RIFLE          CLOUDY    23  19  85 CALM      30.09R
DELTA          NOT AVBL
NUCLA          CLOUDY    23  16  74 E6        30.06R WCI  16
$$

COZ017>023-064>068-021600-
...SOUTHWEST COLORADO...

CITY           SKY/WX    TMP DP  RH WIND       PRES   REMARKS
DURANGO        CLOUDY    22  16  78 CALM      29.97S
CORTEZ         CLOUDY    22  17  81 E5        30.00R WCI  16
PAGOSA SPRINGS FAIR      21  13  72 CALM      29.99S
TELLURIDE      CLOUDY    15  10  79 S5        29.97S WCI   7
WOLF CREEK PAS MOCLDY     9   9 100 S7        29.99S WCI  -3
$$

COZ009-010-012-014-032>034-037-058>063-021600-
...CENTRAL COLORADO...

CITY           SKY/WX    TMP DP  RH WIND       PRES   REMARKS
ASPEN          FAIR      10   6  84 CALM      30.02R
BUENA VISTA    CLOUDY    13   7  76 CALM      30.07
COPPER MTN     CLOUDY    14   3  62 MISG      29.95R
BERTHOUD PASS  CLOUDY     1  -9  60 SE24      29.94R WCI -22
COTTONWOOD PAS CLOUDY    19   9  63 CALM      30.02R
GUNNISON       FAIR       8   5  87 N3        30.06R
KREMMLING      LGT SNOW  19  14  79 CALM      30.09R
LEADVILLE      MOCLDY     7   3  84 CALM      29.98R
MONARCH PASS     N/A      9   3  78 E8        30.07R WCI  -4
SALIDA         CLOUDY    15   6  69 CALM      30.17R
SUNLIGHT       LGT SNOW N/A N/A N/A NE7       30.00R
WILKERSON PASS LGT SNOW   9   3  78 SE7       30.02R WCI  -3
$$

COZ069>075-021600-
...SAN LUIS VALLEY/SANGRE DE CRISTO MOUNTAINS...

CITY           SKY/WX    TMP DP  RH WIND       PRES   REMARKS
ALAMOSA        CLOUDY    11   7  84 NE5       30.02F WCI   3
LA VETA PASS   CLOUDY    18  10  73 S5        30.01R WCI  11
SAGUACHE       CLOUDY    14   7  73 NW6       30.05S WCI   5
$$

COZ035-036-038>040-021600-
...NORTHERN COLORADO FRONT RANGE...

CITY           SKY/WX    TMP DP  RH WIND       PRES   REMARKS
DENVER INTL AP CLOUDY    25  13  60 SW7       30.16R WCI  17
DMNS CITY PARK   N/A     25  12  58 SE8       30.17R WCI  16
AURORA         CLOUDY    23  12  62 SW3       30.16R
FRONT RANGE AP MOCLDY    27  16  63 S6        30.16  WCI  20
ERIE MUNI ARPT CLOUDY    24  18  75 S3        30.17R
BOULDER MUN AP CLOUDY    30  12  47 CALM      30.16R
CENTENNIAL     MOCLDY    24  11  57 W5        30.14R WCI  18
BROOMFIELD     CLOUDY    28  16  59 CALM      30.15R
FORT COLLINS   MOCLDY    21  18  86 CALM      30.17R
LONGMONT       CLOUDY    23  15  70 CALM      30.19R
$$

COZ041-046-047-076>085-087-088-021600-
...PIKES PEAK/PALMER DIVIDE AND SOUTHERN FOOTHILLS...

CITY           SKY/WX    TMP DP  RH WIND       PRES   REMARKS
COLO. SPRINGS  MOCLDY    25   8  48 N7        30.13R WCI  17
A. F. ACADEMY  MOCLDY    19   7  60 N7        30.12R WCI  10
SCHRIEVER AFB  NOT AVBL
ELLICOTT       CLOUDY   N/A N/A N/A E8        30.12
FALCON         CLOUDY    24  10  54 N6        30.12R WCI  17
FORT CARSON    CLOUDY    25   8  47 N8        30.12R WCI  16
LIMON          CLOUDY    16  13  88 CALM      30.15R
MONUMENT HILL  CLOUDY    19  10  68 CALM      30.12R
TRINIDAD       CLOUDY    23  10  57 CALM      30.11R
$$

COZ042>045-048>051-090-091-021600-
...NORTHEAST COLORADO...

CITY           SKY/WX    TMP DP  RH WIND       PRES   REMARKS
GREELEY ARPT   CLOUDY    19  12  74 CALM      30.19R
AKRON          FAIR      23  16  74 W8        30.16R WCI  14
BURLINGTON     FAIR      21  13  71 W5        30.19R WCI  15
WRAY           NOT AVBL
STERLING       FAIR      19  14  79 S3        30.17R
HOLYOKE        FAIR      28  19  69 NW8       30.18R WCI  20
FORT MORGAN    FAIR      25  18  74 W5        30.18R WCI  20
$$

COZ086-089-092>099-021600-
...SOUTHEAST COLORADO...

CITY           SKY/WX    TMP DP  RH WIND       PRES   REMARKS
PUEBLO         FAIR      18  10  71 NW5       30.15R WCI  11
LA JUNTA       CLOUDY    21  13  71 NW3       30.17R
LAMAR          MIX PCPN  19  13  77 W3        30.18R
SPRINGFIELD      N/A     25  13  60 CALM      30.15R
$$




USA.gov is the U.S. government's official web portal to all federal, state and local government web resources and services.